Zurück zum Katalog

COSMOS 2400 DEB

LostPO
NORAD 29420·DEBRIS·🇷🇺 Russia

Gestartet Aug 19, 2003 von Plesetsk Cosmodrome

Loading…

Nächste Überflüge (nächste 24 Stunden)

TLE

VeraltetSource: Space-Track

Epoche: Aug 18, 2013, 11:17 UTC

1 29420U 03037E   13230.47056590  .00000024  00000-0  10000-3 0  9995
2 29420  82.4632  27.2679 0020960 230.4640 129.5031 12.45319311450845

Verfolge COSMOS 2400 DEB in Echtzeit mit AllMySat

Download on the App Store